Weather in Gourdon

France     44°44′12″N   1°23′03″E
temp.,
°C
wind,
m/s
gust,
m/s
humid.,
%
clouds,
%
prec.,
mm/h
press.,
hPa
HPBL,
m
9 march, tue
tue901:00+2nnw12940 0.0 102025
04:00+1nnw12960 0.0 102024
07:000nnw11960 0.0 102121
10:00+5nnw23810 0.0 1021319
13:00+9nw34530 0.0 1020983
16:00+10nw46510 0.0 10201277
19:00+5wnw39750 0.0 1020238
22:00+2wnw23910 0.0 102372
10 march, wed
wed1001:00+1nw11950 0.0 102322
04:000nnw11950 0.0 102421
07:000ese009527 0.0 102421
10:00+6ene007019 0.0 1024311
13:00+10w225834 0.0 1022761
16:00+11wsw2256100 0.0 1021817
19:00+6sw1278100 0.0 102122
22:00+5sse2276100 0.0 102331
11 march, thu
thu1101:00+6sse2673100 0.0 1022204
04:00+6sse2674100 0.0 1021267
07:00+5sse2490100 0.8 1021197
10:00+7sse3690100 0.0 1021217
13:00+10ssw3986100 0.2 1021726
16:00+10sw31096100 0.9 1020649
19:00+9w31195100 1.3 1021657
22:00+8wnw1497100 1.3 1023292
12 march, fri
fri1201:00+7wsw2598100 2.6 1023278
04:00+7sw3796100 2.8 1021473
07:00+6ssw2796100 4.1 1022307
10:00+9w4787100 1.1 1022918
13:00+11w4771100 1.9 10221318
16:00+11w486431 0.8 10211612
19:00+7w3108316 1.1 1021456
22:00+5wsw27920 0.0 1023205
13 march, sat
sat1301:00+4sw29960 0.0 1023291
04:00+4sw299837 0.0 1022307
07:00+4sw3109754 0.2 1021376
10:00+8sw498575 0.1 1021745
13:00+9wsw488484 0.8 10201088
16:00+9w41089100 0.6 10181040
19:00+7wsw31291100 0.9 1018719
22:00+7wsw51392100 0.4 10181026